QPF
0.01 0.00 0.01 0.01 0.02 0.02 0.02 0.02 0.01 0.01 0.01 0.00 0.00 0.01 0.01 0.00 0.00 0.00 0.00 0.00 0.00 0.01 0.01 0.01 0.02 0.02 0.03 0.02 0.02 0.02 0.01 0.01 0.01 0.01 0.01 0.01 0.01 0.01 0.01 0.02 0.02 0.02 0.03
0.01 0.01 0.01 0.01 0.02 0.02 0.02 0.02 0.02 0.01 0.01 0.01 0.00 0.00 0.00 0.00 0.00 0.00 0.00 0.00 0.00 0.01 0.01 0.02 0.02 0.02 0.03 0.02 0.02 0.02 0.01 0.01 0.01 0.01 0.01 0.01 0.01 0.01 0.01 0.01 0.01 0.01 0.02
0.02 0.02 0.02 0.02 0.02 0.02 0.03 0.02 0.02 0.01 0.01 0.00 0.00 0.00 0.00 0.00 0.00 0.00 0.00 0.00 0.00 0.00 0.01 0.02 0.02 0.02 0.02 0.02 0.02 0.02 0.01 0.01 0.01 0.01 0.01 0.01 0.01 0.01 0.01 0.01 0.01 0.01 0.02
0.03 0.02 0.02 0.02 0.04 0.04 0.04 0.02 0.02 0.02 0.01 0.01 0.00 0.00 0.00 0.00 0.00 0.00 0.00 0.00 0.00 0.00 0.00 0.01 0.01 0.01 0.01 0.01 0.01 0.02 0.02 0.01 0.01 0.01 0.01 0.01 0.01 0.01 0.01 0.01 0.01 0.01 0.01
0.03 0.02 0.01 0.02 0.03 0.05 0.05 0.03 0.02 0.02 0.01 0.01 0.00 0.00 0.00 0.00 0.00 0.00 0.00 0.00 0.00 0.00 0.00 0.01 0.00 0.00 0.01 0.01 0.01 0.01 0.02 0.01 0.01 0.01 0.01 0.01 0.01 0.01 0.01 0.01 0.00 0.01 0.01
0.03 0.02 0.01 0.01 0.03 0.04 0.06 0.05 0.04 0.02 0.02 0.01 0.00 0.00 0.00 0.00 0.00 0.00 0.00 0.00 0.00 0.00 0.00 0.00 0.00 0.00 0.00 0.00 0.01 0.01 0.01 0.01 0.01 0.01 0.01 0.01 0.02 0.02 0.01 0.01 0.01 0.01 0.01
0.02 0.02 0.02 0.02 0.02 0.04 0.07 0.07 0.05 0.03 0.02 0.01 0.01 0.00 0.00 0.00 0.00 0.00 0.00 0.00 0.00 0.00 0.00 0.00 0.00 0.00 0.00 0.00 0.00 0.00 0.01 0.01 0.01 0.01 0.01 0.01 0.02 0.02 0.02 0.01 0.01 0.01 0.01
0.03 0.02 0.02 0.01 0.02 0.05 0.09 0.09 0.06 0.05 0.04 0.02 0.01 0.01 0.00 0.01 0.00 0.00 0.00 0.00 0.00 0.00 0.00 0.00 0.00 0.00 0.00 0.00 0.00 0.00 0.01 0.01 0.01 0.01 0.01 0.01 0.02 0.02 0.01 0.01 0.01 0.01 0.01
0.05 0.02 0.02 0.01 0.01 0.04 0.07 0.09 0.07 0.07 0.05 0.03 0.02 0.01 0.00 0.00 0.00 0.00 0.00 0.00 0.00 0.01 0.00 0.00 0.00 0.00 0.00 0.00 0.00 0.00 0.00 0.01 0.01 0.02 0.02 0.03 0.02 0.02 0.02 0.02 0.02 0.02 0.02
0.09 0.04 0.02 0.02 0.01 0.03 0.04 0.07 0.06 0.05 0.05 0.04 0.03 0.01 0.00 0.00 0.00 0.00 0.00 0.00 0.00 0.01 0.01 0.00 0.00 0.00 0.00 0.00 0.00 0.00 0.01 0.01 0.01 0.02 0.02 0.03 0.03 0.02 0.02 0.02 0.03 0.03 0.03
0.15 0.08 0.03 0.02 0.01 0.02 0.03 0.05 0.05 0.04 0.04 0.03 0.03 0.02 0.01 0.00 0.00 0.00 0.00 0.00 0.00 0.00 0.01 0.00 0.00 0.00 0.00 0.00 0.00 0.00 0.01 0.01 0.01 0.02 0.02 0.02 0.02 0.02 0.03 0.03 0.03 0.03 0.04
0.19 0.14 0.07 0.04 0.02 0.01 0.02 0.03 0.04 0.04 0.03 0.03 0.03 0.02 0.01 0.00 0.00 0.00 0.00 0.00 0.00 0.00 0.00 0.00 0.00 0.00 0.00 0.00 0.00 0.00 0.01 0.01 0.01 0.02 0.03 0.03 0.02 0.01 0.02 0.02 0.03 0.04 0.04
0.18 0.20 0.12 0.07 0.04 0.02 0.02 0.03 0.04 0.04 0.03 0.04 0.04 0.02 0.01 0.00 0.00 0.00 0.00 0.00 0.00 0.00 0.00 0.01 0.00 0.00 0.00 0.00 0.01 0.01 0.01 0.01 0.01 0.01 0.03 0.03 0.02 0.02 0.01 0.01 0.02 0.03 0.04
0.13 0.19 0.18 0.11 0.07 0.05 0.03 0.03 0.05 0.06 0.04 0.04 0.04 0.03 0.02 0.01 0.00 0.00 0.00 0.01 0.01 0.00 0.00 0.01 0.01 0.00 0.00 0.00 0.00 0.01 0.00 0.01 0.00 0.01 0.02 0.02 0.02 0.02 0.02 0.02 0.02 0.03 0.04
0.10 0.12 0.18 0.16 0.10 0.08 0.06 0.06 0.06 0.06 0.06 0.05 0.04 0.04 0.03 0.02 0.01 0.01 0.00 0.01 0.01 0.01 0.00 0.01 0.01 0.01 0.01 0.01 0.01 0.01 0.00 0.01 0.01 0.01 0.01 0.01 0.01 0.02 0.01 0.01 0.01 0.03 0.05
0.09 0.11 0.11 0.13 0.12 0.09 0.09 0.09 0.08 0.07 0.07 0.06 0.05 0.04 0.04 0.02 0.01 0.01 0.01 0.01 0.01 0.01 0.01 0.00 0.00 0.01 0.01 0.01 0.01 0.01 0.01 0.01 0.01 0.01 0.01 0.01 0.02 0.02 0.02 0.02 0.02 0.03 0.04
0.06 0.10 0.10 0.10 0.10 0.09 0.08 0.09 0.08 0.07 0.07 0.07 0.06 0.04 0.04 0.03 0.01 0.01 0.01 0.01 0.01 0.01 0.01 0.00 0.00 0.00 0.01 0.01 0.01 0.01 0.01 0.01 0.01 0.01 0.01 0.01 0.02 0.02 0.02 0.01 0.02 0.03 0.03
0.04 0.07 0.10 0.09 0.09 0.08 0.07 0.07 0.08 0.07 0.06 0.06 0.05 0.04 0.03 0.02 0.01 0.01 0.01 0.00 0.00 0.01 0.01 0.01 0.01 0.01 0.01 0.01 0.02 0.02 0.01 0.01 0.01 0.01 0.01 0.01 0.01 0.02 0.01 0.01 0.01 0.02 0.02
0.04 0.06 0.08 0.07 0.08 0.08 0.06 0.06 0.06 0.06 0.05 0.05 0.05 0.05 0.04 0.03 0.02 0.01 0.01 0.01 0.01 0.01 0.01 0.01 0.02 0.02 0.01 0.01 0.02 0.02 0.02 0.02 0.01 0.02 0.02 0.02 0.02 0.02 0.02 0.01 0.01 0.02 0.02
0.03 0.04 0.06 0.07 0.06 0.06 0.05 0.04 0.04 0.04 0.04 0.04 0.04 0.04 0.04 0.03 0.02 0.02 0.01 0.01 0.01 0.01 0.01 0.01 0.01 0.02 0.02 0.02 0.02 0.02 0.02 0.02 0.01 0.01 0.02 0.02 0.02 0.02 0.02 0.02 0.02 0.02 0.03
0.03 0.03 0.03 0.05 0.06 0.05 0.04 0.04 0.03 0.03 0.03 0.03 0.03 0.04 0.04 0.04 0.03 0.03 0.02 0.02 0.01 0.01 0.02 0.02 0.02 0.02 0.02 0.02 0.02 0.02 0.02 0.02 0.02 0.02 0.02 0.01 0.01 0.01 0.01 0.02 0.02 0.02 0.03
0.03 0.03 0.03 0.03 0.04 0.04 0.04 0.03 0.03 0.02 0.03 0.02 0.02 0.02 0.03 0.03 0.03 0.03 0.02 0.02 0.02 0.01 0.01 0.01 0.02 0.02 0.01 0.01 0.01 0.01 0.02 0.02 0.02 0.01 0.01 0.01 0.01 0.01 0.01 0.01 0.01 0.01 0.01
0.04 0.04 0.04 0.03 0.03 0.03 0.04 0.03 0.02 0.02 0.02 0.02 0.02 0.02 0.02 0.02 0.02 0.02 0.02 0.02 0.01 0.02 0.02 0.02 0.02 0.02 0.01 0.01 0.01 0.01 0.02 0.02 0.02 0.01 0.01 0.01 0.01 0.01 0.01 0.01 0.01 0.01 0.01
0.05 0.05 0.05 0.04 0.03 0.03 0.03 0.03 0.03 0.03 0.03 0.02 0.02 0.02 0.02 0.01 0.01 0.01 0.02 0.02 0.01 0.01 0.02 0.02 0.02 0.02 0.02 0.02 0.02 0.02 0.03 0.04 0.03 0.02 0.01 0.01 0.01 0.01 0.01 0.01 0.01 0.01 0.01
0.06 0.06 0.05 0.04 0.04 0.05 0.04 0.03 0.03 0.03 0.04 0.04 0.03 0.03 0.02 0.02 0.01 0.01 0.01 0.01 0.01 0.01 0.02 0.02 0.03 0.03 0.03 0.03 0.03 0.03 0.03 0.03 0.03 0.01 0.01 0.00 0.00 0.00 0.01 0.01 0.01 0.01 0.01
0.08 0.08 0.06 0.05 0.05 0.05 0.05 0.04 0.03 0.03 0.04 0.04 0.04 0.04 0.04 0.03 0.02 0.01 0.01 0.01 0.01 0.01 0.01 0.01 0.02 0.02 0.02 0.02 0.03 0.02 0.02 0.03 0.02 0.02 0.01 0.01 0.01 0.01 0.01 0.01 0.01 0.01 0.01
MSLP
1021.93 1021.73 1021.49 1021.27 1021.10 1021.03 1021.06 1021.19 1021.37 1021.56 1021.70 1021.76 1021.73 1021.61 1021.44 1021.26 1021.11 1021.01 1020.97 1020.99 1021.04 1021.10 1021.14 1021.15 1021.13 1021.10 1021.08 1021.08 1021.12 1021.19 1021.29 1021.40 1021.51 1021.59 1021.66 1021.70 1021.74 1021.77 1021.82 1021.89 1021.98 1022.08 1022.19
1022.45 1022.14 1021.80 1021.48 1021.24 1021.11 1021.12 1021.24 1021.43 1021.64 1021.81 1021.89 1021.88 1021.76 1021.58 1021.38 1021.18 1021.03 1020.94 1020.90 1020.89 1020.91 1020.91 1020.90 1020.87 1020.83 1020.79 1020.78 1020.80 1020.86 1020.95 1021.07 1021.20 1021.32 1021.44 1021.54 1021.63 1021.72 1021.80 1021.90 1022.00 1022.10 1022.21
1023.05 1022.64 1022.19 1021.78 1021.46 1021.28 1021.24 1021.32 1021.50 1021.70 1021.88 1021.97 1021.97 1021.87 1021.69 1021.48 1021.26 1021.08 1020.94 1020.84 1020.79 1020.75 1020.72 1020.67 1020.62 1020.56 1020.51 1020.48 1020.49 1020.53 1020.61 1020.73 1020.86 1021.01 1021.16 1021.31 1021.45 1021.58 1021.70 1021.82 1021.93 1022.04 1022.15
1023.70 1023.20 1022.67 1022.18 1021.80 1021.54 1021.44 1021.48 1021.60 1021.77 1021.92 1022.01 1022.01 1021.92 1021.76 1021.56 1021.34 1021.14 1020.97 1020.84 1020.74 1020.66 1020.58 1020.51 1020.43 1020.36 1020.29 1020.25 1020.24 1020.26 1020.32 1020.42 1020.54 1020.69 1020.85 1021.01 1021.18 1021.34 1021.49 1021.62 1021.75 1021.86 1021.97
1024.37 1023.81 1023.23 1022.70 1022.25 1021.94 1021.77 1021.73 1021.78 1021.88 1021.97 1022.03 1022.02 1021.94 1021.80 1021.62 1021.42 1021.22 1021.04 1020.89 1020.76 1020.64 1020.54 1020.44 1020.34 1020.26 1020.18 1020.13 1020.10 1020.10 1020.12 1020.18 1020.27 1020.39 1020.52 1020.68 1020.84 1021.01 1021.16 1021.31 1021.43 1021.55 1021.66
1025.04 1024.46 1023.86 1023.31 1022.84 1022.48 1022.24 1022.11 1022.07 1022.07 1022.09 1022.09 1022.04 1021.96 1021.84 1021.68 1021.51 1021.33 1021.16 1021.00 1020.85 1020.71 1020.58 1020.46 1020.36 1020.27 1020.19 1020.13 1020.08 1020.05 1020.04 1020.05 1020.08 1020.14 1020.22 1020.33 1020.46 1020.60 1020.75 1020.88 1021.01 1021.12 1021.23
1025.67 1025.11 1024.54 1024.01 1023.54 1023.15 1022.86 1022.65 1022.50 1022.40 1022.32 1022.24 1022.15 1022.04 1021.92 1021.78 1021.64 1021.48 1021.32 1021.15 1020.99 1020.83 1020.69 1020.56 1020.45 1020.36 1020.29 1020.23 1020.17 1020.12 1020.06 1020.01 1019.97 1019.95 1019.96 1020.00 1020.07 1020.17 1020.28 1020.40 1020.51 1020.62 1020.72
1026.26 1025.75 1025.24 1024.76 1024.32 1023.94 1023.61 1023.33 1023.09 1022.88 1022.69 1022.52 1022.37 1022.23 1022.10 1021.96 1021.83 1021.68 1021.52 1021.34 1021.16 1020.98 1020.81 1020.68 1020.56 1020.48 1020.42 1020.37 1020.32 1020.24 1020.16 1020.05 1019.93 1019.83 1019.76 1019.71 1019.72 1019.76 1019.83 1019.91 1020.00 1020.09 1020.18
1026.78 1026.34 1025.92 1025.52 1025.15 1024.80 1024.46 1024.13 1023.81 1023.51 1023.22 1022.97 1022.74 1022.55 1022.39 1022.24 1022.09 1021.93 1021.74 1021.54 1021.32 1021.10 1020.91 1020.75 1020.64 1020.56 1020.52 1020.48 1020.43 1020.36 1020.25 1020.10 1019.93 1019.75 1019.60 1019.48 1019.41 1019.39 1019.41 1019.47 1019.53 1019.60 1019.67
1027.23 1026.88 1026.55 1026.25 1025.95 1025.65 1025.33 1024.98 1024.61 1024.23 1023.87 1023.54 1023.25 1023.00 1022.80 1022.61 1022.42 1022.22 1021.98 1021.72 1021.44 1021.17 1020.93 1020.74 1020.60 1020.53 1020.49 1020.48 1020.45 1020.38 1020.27 1020.10 1019.89 1019.67 1019.46 1019.28 1019.15 1019.08 1019.06 1019.08 1019.12 1019.17 1019.22
1027.61 1027.34 1027.10 1026.89 1026.67 1026.43 1026.14 1025.79 1025.40 1024.98 1024.56 1024.18 1023.84 1023.54 1023.28 1023.05 1022.81 1022.54 1022.23 1021.89 1021.53 1021.18 1020.87 1020.63 1020.46 1020.37 1020.33 1020.33 1020.32 1020.27 1020.16 1020.00 1019.78 1019.53 1019.29 1019.08 1018.92 1018.81 1018.76 1018.74 1018.76 1018.78 1018.80
1027.93 1027.71 1027.55 1027.41 1027.26 1027.07 1026.81 1026.48 1026.09 1025.66 1025.23 1024.81 1024.44 1024.11 1023.81 1023.52 1023.22 1022.87 1022.48 1022.05 1021.59 1021.15 1020.75 1020.44 1020.22 1020.09 1020.04 1020.04 1020.03 1020.00 1019.91 1019.76 1019.55 1019.31 1019.06 1018.84 1018.66 1018.53 1018.46 1018.43 1018.42 1018.42 1018.41
1028.16 1027.99 1027.87 1027.77 1027.67 1027.52 1027.29 1026.99 1026.62 1026.21 1025.78 1025.37 1024.99 1024.64 1024.31 1023.98 1023.62 1023.21 1022.73 1022.21 1021.65 1021.11 1020.63 1020.23 1019.94 1019.76 1019.67 1019.65 1019.64 1019.60 1019.53 1019.39 1019.20 1018.97 1018.74 1018.52 1018.34 1018.21 1018.13 1018.08 1018.05 1018.03 1018.00
1028.32 1028.16 1028.06 1027.98 1027.89 1027.76 1027.57 1027.29 1026.96 1026.57 1026.17 1025.79 1025.42 1025.08 1024.75 1024.39 1024.00 1023.53 1022.99 1022.38 1021.75 1021.12 1020.55 1020.07 1019.70 1019.45 1019.31 1019.24 1019.20 1019.15 1019.07 1018.94 1018.76 1018.54 1018.32 1018.12 1017.94 1017.81 1017.72 1017.67 1017.63 1017.59 1017.53
1028.38 1028.22 1028.12 1028.04 1027.95 1027.82 1027.64 1027.39 1027.08 1026.74 1026.38 1026.04 1025.71 1025.39 1025.07 1024.72 1024.31 1023.81 1023.23 1022.58 1021.89 1021.20 1020.56 1020.01 1019.57 1019.25 1019.04 1018.90 1018.80 1018.72 1018.60 1018.46 1018.27 1018.06 1017.84 1017.64 1017.47 1017.34 1017.24 1017.17 1017.12 1017.06 1017.00
1028.33 1028.18 1028.06 1027.97 1027.86 1027.72 1027.54 1027.31 1027.03 1026.72 1026.41 1026.12 1025.83 1025.56 1025.26 1024.93 1024.53 1024.04 1023.45 1022.79 1022.08 1021.36 1020.68 1020.07 1019.57 1019.19 1018.90 1018.69 1018.52 1018.37 1018.21 1018.02 1017.80 1017.57 1017.34 1017.12 1016.94 1016.79 1016.68 1016.59 1016.52 1016.46 1016.39
1028.16 1028.02 1027.90 1027.79 1027.67 1027.51 1027.32 1027.09 1026.83 1026.56 1026.29 1026.03 1025.79 1025.55 1025.30 1025.00 1024.62 1024.16 1023.59 1022.95 1022.26 1021.55 1020.86 1020.24 1019.71 1019.27 1018.92 1018.63 1018.39 1018.16 1017.92 1017.67 1017.40 1017.13 1016.86 1016.61 1016.39 1016.21 1016.06 1015.95 1015.86 1015.79 1015.72
1027.86 1027.74 1027.63 1027.52 1027.38 1027.22 1027.02 1026.79 1026.54 1026.28 1026.04 1025.81 1025.60 1025.39 1025.16 1024.89 1024.56 1024.13 1023.61 1023.02 1022.37 1021.70 1021.04 1020.44 1019.90 1019.43 1019.03 1018.69 1018.37 1018.07 1017.76 1017.43 1017.09 1016.75 1016.43 1016.12 1015.85 1015.62 1015.43 1015.28 1015.16 1015.08 1015.02
1027.41 1027.34 1027.26 1027.16 1027.02 1026.85 1026.65 1026.41 1026.16 1025.91 1025.67 1025.45 1025.25 1025.06 1024.85 1024.60 1024.29 1023.91 1023.44 1022.91 1022.33 1021.72 1021.13 1020.56 1020.05 1019.58 1019.17 1018.78 1018.41 1018.04 1017.66 1017.27 1016.86 1016.45 1016.05 1015.68 1015.34 1015.05 1014.80 1014.61 1014.46 1014.36 1014.29
1026.82 1026.81 1026.77 1026.69 1026.57 1026.40 1026.20 1025.96 1025.70 1025.44 1025.19 1024.96 1024.76 1024.56 1024.35 1024.11 1023.82 1023.47 1023.06 1022.59 1022.08 1021.55 1021.03 1020.52 1020.05 1019.62 1019.21 1018.82 1018.42 1018.01 1017.58 1017.13 1016.65 1016.18 1015.71 1015.27 1014.87 1014.51 1014.20 1013.95 1013.76 1013.63 1013.55
1026.09 1026.14 1026.14 1026.10 1026.00 1025.85 1025.64 1025.40 1025.13 1024.85 1024.59 1024.34 1024.11 1023.89 1023.67 1023.43 1023.14 1022.82 1022.44 1022.02 1021.58 1021.13 1020.68 1020.25 1019.84 1019.46 1019.09 1018.71 1018.31 1017.89 1017.43 1016.94 1016.43 1015.91 1015.38 1014.88 1014.41 1013.99 1013.62 1013.32 1013.08 1012.91 1012.81
1025.24 1025.34 1025.38 1025.37 1025.30 1025.15 1024.95 1024.70 1024.43 1024.14 1023.85 1023.58 1023.33 1023.08 1022.83 1022.57 1022.28 1021.96 1021.61 1021.24 1020.84 1020.45 1020.08 1019.72 1019.38 1019.06 1018.73 1018.39 1018.02 1017.62 1017.16 1016.67 1016.14 1015.59 1015.03 1014.49 1013.97 1013.49 1013.07 1012.71 1012.42 1012.20 1012.06
1024.30 1024.42 1024.49 1024.51 1024.45 1024.32 1024.12 1023.87 1023.58 1023.28 1022.98 1022.69 1022.41 1022.14 1021.87 1021.59 1021.29 1020.96 1020.62 1020.27 1019.92 1019.57 1019.25 1018.95 1018.68 1018.41 1018.14 1017.86 1017.53 1017.17 1016.74 1016.27 1015.75 1015.20 1014.64 1014.07 1013.52 1013.01 1012.54 1012.13 1011.78 1011.52 1011.32
1023.28 1023.41 1023.50 1023.52 1023.47 1023.34 1023.15 1022.89 1022.60 1022.29 1021.98 1021.68 1021.39 1021.10 1020.82 1020.52 1020.21 1019.88 1019.54 1019.19 1018.86 1018.54 1018.26 1018.00 1017.78 1017.57 1017.36 1017.13 1016.86 1016.55 1016.18 1015.76 1015.27 1014.75 1014.20 1013.64 1013.08 1012.54 1012.04 1011.58 1011.19 1010.87 1010.61
1022.24 1022.36 1022.44 1022.46 1022.40 1022.27 1022.07 1021.81 1021.51 1021.20 1020.89 1020.59 1020.29 1020.00 1019.71 1019.40 1019.09 1018.75 1018.41 1018.07 1017.74 1017.44 1017.17 1016.94 1016.76 1016.59 1016.43 1016.26 1016.06 1015.82 1015.51 1015.15 1014.72 1014.25 1013.73 1013.19 1012.64 1012.10 1011.57 1011.08 1010.65 1010.27 1009.95
1021.22 1021.32 1021.38 1021.37 1021.30 1021.14 1020.92 1020.66 1020.36 1020.04 1019.73 1019.43 1019.14 1018.86 1018.57 1018.26 1017.95 1017.61 1017.26 1016.92 1016.59 1016.30 1016.04 1015.83 1015.67 1015.54 1015.43 1015.32 1015.18 1015.01 1014.78 1014.49 1014.14 1013.72 1013.26 1012.75 1012.22 1011.68 1011.15 1010.64 1010.16 1009.72 1009.34
Thickness
5664 5664 5664 5665 5665 5665 5665 5665 5665 5665 5665 5664 5663 5663 5662 5662 5661 5660 5660 5660 5659 5659 5659 5658 5657 5656 5655 5654 5653 5652 5651 5650 5648 5647 5646 5645 5644 5643 5641 5639 5638 5636 5635
5658 5659 5659 5659 5660 5660 5660 5660 5660 5660 5660 5659 5658 5658 5657 5657 5656 5656 5655 5655 5654 5654 5654 5653 5653 5652 5651 5650 5649 5648 5646 5645 5644 5643 5642 5640 5639 5638 5636 5635 5633 5632 5630
5652 5654 5654 5654 5654 5655 5655 5655 5654 5655 5654 5654 5653 5652 5652 5652 5651 5651 5651 5650 5649 5649 5649 5648 5648 5647 5646 5645 5644 5643 5642 5641 5639 5638 5637 5636 5634 5633 5631 5630 5628 5627 5625
5646 5647 5648 5649 5649 5649 5649 5649 5649 5649 5648 5647 5647 5646 5646 5646 5646 5646 5645 5645 5644 5644 5643 5643 5643 5642 5641 5641 5640 5638 5637 5636 5635 5633 5632 5631 5630 5628 5626 5625 5623 5621 5620
5640 5641 5642 5643 5643 5643 5643 5644 5643 5643 5642 5641 5641 5640 5640 5640 5640 5640 5640 5639 5639 5639 5638 5638 5637 5637 5636 5636 5635 5634 5632 5631 5630 5628 5627 5626 5625 5623 5621 5620 5618 5616 5615
5633 5633 5635 5636 5637 5637 5637 5638 5638 5637 5637 5636 5635 5633 5633 5633 5634 5634 5634 5634 5633 5633 5633 5632 5632 5631 5631 5630 5629 5628 5627 5626 5625 5623 5622 5621 5620 5618 5616 5614 5612 5611 5609
5626 5627 5628 5629 5630 5631 5631 5632 5632 5631 5630 5630 5628 5625 5624 5626 5626 5627 5628 5627 5627 5627 5627 5626 5626 5626 5625 5624 5624 5623 5622 5621 5620 5618 5617 5615 5614 5612 5611 5609 5607 5605 5603
5619 5620 5621 5623 5623 5624 5624 5625 5626 5624 5623 5625 5624 5620 5617 5617 5619 5620 5621 5621 5621 5621 5621 5620 5620 5620 5619 5618 5618 5617 5616 5615 5614 5613 5611 5610 5609 5607 5605 5603 5601 5599 5597
5612 5613 5615 5616 5617 5618 5618 5619 5621 5621 5618 5618 5621 5619 5615 5614 5612 5613 5614 5614 5614 5614 5614 5614 5614 5613 5613 5612 5612 5611 5610 5609 5608 5607 5606 5604 5603 5601 5599 5597 5595 5593 5591
5605 5607 5608 5610 5611 5612 5613 5613 5614 5615 5615 5613 5614 5615 5615 5614 5610 5607 5607 5608 5608 5608 5608 5608 5608 5607 5607 5606 5605 5605 5604 5603 5602 5600 5599 5598 5596 5595 5593 5591 5589 5587 5585
5597 5600 5601 5603 5604 5606 5607 5607 5607 5609 5609 5608 5609 5608 5608 5607 5606 5605 5602 5601 5601 5602 5602 5602 5601 5601 5600 5600 5599 5598 5597 5596 5595 5593 5592 5591 5589 5588 5586 5584 5582 5580 5578
5588 5591 5594 5596 5598 5600 5600 5601 5601 5602 5603 5603 5603 5604 5604 5603 5601 5599 5597 5595 5594 5595 5596 5595 5595 5594 5594 5593 5592 5591 5590 5589 5588 5586 5585 5583 5582 5580 5578 5576 5574 5572 5570
5578 5582 5586 5588 5591 5593 5594 5594 5594 5595 5596 5596 5597 5597 5598 5598 5598 5596 5593 5589 5588 5588 5588 5589 5589 5588 5587 5586 5585 5584 5583 5582 5580 5579 5577 5576 5574 5572 5570 5568 5565 5564 5562
5569 5573 5577 5579 5583 5585 5586 5586 5586 5587 5588 5588 5589 5590 5591 5591 5591 5591 5589 5585 5581 5580 5580 5581 5582 5581 5580 5579 5578 5576 5575 5574 5572 5571 5569 5567 5565 5563 5561 5559 5557 5555 5553
5560 5564 5568 5571 5574 5576 5578 5578 5578 5579 5579 5580 5581 5582 5582 5583 5583 5583 5583 5581 5579 5575 5574 5574 5573 5574 5573 5571 5570 5568 5567 5566 5564 5562 5560 5558 5557 5554 5552 5550 5549 5546 5544
5550 5554 5559 5562 5565 5567 5569 5569 5570 5570 5570 5571 5572 5573 5574 5574 5574 5574 5574 5573 5573 5571 5568 5567 5566 5565 5564 5563 5561 5560 5558 5557 5555 5553 5551 5549 5547 5545 5543 5542 5540 5537 5535
5541 5544 5549 5552 5555 5557 5559 5560 5561 5561 5561 5562 5563 5564 5565 5565 5565 5565 5565 5564 5563 5562 5559 5558 5556 5556 5554 5553 5551 5550 5548 5547 5545 5543 5542 5540 5538 5536 5534 5532 5530 5528 5526
5530 5534 5538 5540 5544 5547 5548 5550 5551 5552 5552 5554 5554 5555 5556 5556 5556 5556 5556 5556 5555 5554 5552 5549 5546 5545 5544 5543 5542 5540 5538 5537 5535 5534 5532 5530 5529 5527 5525 5523 5520 5518 5516
5519 5523 5526 5529 5533 5535 5537 5539 5541 5542 5543 5545 5545 5546 5547 5547 5547 5546 5546 5546 5546 5545 5543 5541 5539 5536 5534 5533 5531 5529 5527 5526 5525 5523 5522 5521 5519 5517 5515 5513 5510 5508 5505
5507 5511 5516 5518 5521 5523 5525 5528 5530 5531 5532 5534 5536 5537 5538 5538 5538 5537 5537 5536 5535 5533 5532 5531 5529 5526 5524 5522 5520 5518 5517 5515 5514 5513 5512 5510 5509 5506 5504 5502 5500 5498 5495
5496 5500 5503 5506 5509 5511 5514 5516 5519 5521 5522 5524 5525 5526 5528 5529 5529 5528 5528 5527 5525 5523 5521 5520 5518 5516 5514 5511 5511 5509 5507 5505 5503 5502 5501 5500 5498 5496 5493 5491 5489 5487 5485
5484 5488 5491 5494 5497 5500 5502 5505 5508 5510 5512 5513 5515 5516 5517 5517 5517 5518 5518 5517 5516 5514 5512 5511 5509 5508 5507 5504 5501 5499 5496 5494 5493 5492 5490 5489 5487 5485 5483 5481 5479 5477 5476
5472 5475 5479 5483 5485 5488 5491 5493 5496 5499 5501 5503 5504 5505 5506 5506 5506 5506 5506 5505 5504 5504 5504 5503 5501 5500 5498 5496 5492 5489 5487 5484 5484 5481 5478 5477 5475 5473 5472 5471 5469 5467 5465
5460 5464 5467 5470 5473 5476 5479 5482 5484 5487 5489 5492 5493 5495 5495 5495 5494 5495 5494 5493 5493 5492 5492 5492 5492 5492 5489 5487 5484 5482 5478 5473 5470 5468 5467 5464 5463 5461 5461 5460 5459 5457 5454
5448 5452 5456 5458 5461 5465 5467 5470 5472 5475 5478 5480 5482 5483 5484 5484 5484 5484 5483 5482 5481 5480 5480 5480 5480 5479 5477 5475 5473 5469 5465 5461 5459 5457 5455 5452 5451 5449 5449 5449 5448 5445 5443
5436 5440 5443 5447 5450 5453 5456 5459 5461 5464 5467 5469 5470 5471 5472 5473 5473 5472 5472 5471 5470 5469 5467 5467 5466 5465 5464 5462 5460 5458 5456 5452 5449 5447 5445 5441 5439 5436 5437 5438 5436 5434 5431